GNOMES-2 (48910 NORAD) Tracking and Keplerian Element Data

This shows tracking and keplerian element data for the satellite.

Feedback or suggestion? Click here.




ElementValue
Catalog48910
NameGNOMES-2
Epoch Orbit1675
Epoch Day287.62988772
Epoch Year2021
RAAN54.8841
Inclination97.5273
Eccentricity0.0010804
Argument of Perigee221.309
Mean Anonmoly138.7325
Mean Motion15.12874186
Decay Rate3.531E-05
L11 48910U 21059AH 21287.62988772 .00003531 00000-0 20422-3 0 9993
L22 48910 97.5273 54.8841 0010804 221.3090 138.7325 15.12874186 16758

Live tracking and technical data element details for GNOMES-2 (NORAD 48910). GNOMES-2 can be tracked NOW for your location showing map with azimuth and elevation plus other details from your city location.

Track the satellite on the map from your city or location and see movement details for azimuth, elevation, latitude, longitude, range, height, and movement on the map or in text.







IsCatalogInMostPopularTable: catalog: 48910, numindb: 20
Update: records affected: 1



GetName: 48910 GNOMES-2

Hit Count: updated at: Tue, 19 Oct 2021 08:52:10 GMT